• MPC Preparation (Info)

  • MPEC 2020-F102 : 2020 FK3

    The following Minor Planet Electronic Circular may be linked-to from your own Web pages, but must not otherwise be redistributed electronically.

    A form allowing access to any MPEC is at the bottom of this page.


    Read MPEC 2020-F101 Read MPEC 2020-F103


    M.P.E.C. 2020-F102                               Issued 2020 March 24, 04:50 UT
    
         The Minor Planet Electronic Circulars contain information on unusual
             minor planets and routine data on comets.  They are published
        on behalf of Division F of the International Astronomical Union by the
              Minor Planet Center, Smithsonian Astrophysical Observatory,
                              Cambridge, MA 02138, U.S.A.
    
                 Prepared using the Tamkin Foundation Computer Network
    
                                  MPC@CFA.HARVARD.EDU
                URL https://www.minorplanetcenter.net/    ISSN 1523-6714
    
                                    2020 FK3                                 
    
    
    Observations:
         K20F03K* C2020 03 22.46767911 43 33.103+13 07 22.14         21.27wUEF102F51
         K20F03K  C2020 03 22.47963911 43 36.130+13 08 02.80         21.38wUEF102F51
         K20F03K  C2020 03 22.49160811 43 39.194+13 08 42.85         21.28wUEF102F51
         K20F03K  C2020 03 22.85892 11 45 38.47 +13 29 21.6          20.3 VVEF102033
         K20F03K  C2020 03 22.86197 11 45 39.37 +13 29 33.0          20.9 VVEF102033
         K20F03K  C2020 03 22.86503 11 45 40.26 +13 29 44.5          21.1 VVEF102033
         K20F03K KC2020 03 23.05593911 46 37.02 +13 41 24.5          20.9 GVEF102J95
         K20F03K KC2020 03 23.06915811 46 40.97 +13 42 13.2          21.3 GVEF102J95
         K20F03K KC2020 03 23.08850311 46 46.74 +13 43 23.6                VEF102J95
         K20F03K  C2020 03 23.12564 11 46 57.36 +13 45 36.9          20.6 VVEF102033
         K20F03K  C2020 03 23.12829 11 46 58.18 +13 45 46.3          20.5 VVEF102033
         K20F03K  C2020 03 23.87310 11 51 28.29 +14 34 45.2          20.5 VVEF102033
         K20F03K  C2020 03 23.87547 11 51 29.10 +14 34 55.3          20.5 VVEF102033
         K20F03K  C2020 03 23.87783 11 51 29.92 +14 35 05.4          20.2 VVEF102033
         K20F03K KC2020 03 23.89170 11 51 36.19 +14 36 13.6          20.4 VqEF102I93
         K20F03K KC2020 03 23.90668 11 51 41.31 +14 37 16.2          20.6 VqEF102I93
         K20F03K KC2020 03 23.93447611 51 49.30 +14 39 14.5          21.2 GVEF102L01
         K20F03K KC2020 03 23.93623711 51 49.93 +14 39 21.4          21.0 GVEF102L01
         K20F03K KC2020 03 23.93843111 51 50.68 +14 39 30.8          21.0 GVEF102L01
         K20F03K KC2020 03 24.02621711 52 22.58 +14 45 27.6          20.5 GVEF102J95
         K20F03K KC2020 03 24.04157911 52 27.92 +14 46 32.8          20.8 GVEF102J95
         K20F03K  C2020 03 24.04206 11 52 26.88 +14 46 33.0          20.7 VVEF102033
         K20F03K  C2020 03 24.04436 11 52 27.68 +14 46 42.4          20.5 VVEF102033
         K20F03K  C2020 03 24.04667 11 52 28.50 +14 46 52.0          20.7 VVEF102033
         K20F03K KC2020 03 24.05772011 52 33.63 +14 47 39.8          21.0 GVEF102J95
    
    Observer details:
    033 Karl Schwarzschild Observatory, Tautenburg.  Observers U. Laux, S. Melnikov,
        B. Stecklum, F. Ludwig.  Measurer B. Stecklum.  1.34-m f/3 Schmidt + CCD.
    F51 Pan-STARRS 1, Haleakala.  Observers J. Bulger, T. Lowe, A. Schultz, M. 
       Willman.  Measurers K. Chambers, S. Chastel, T. de Boer, L. Denneau, J. 
       Fairlamb, H. Flewelling, M. Huber, C.-C. Lin, E. Magnier, Y. Ramanjooloo, R. 
       Wainscoat, R. Weryk.  1.8-m Ritchey-Chretien + CCD.
    I93 St Pardon de Conques.  Observer F. Losse.  0.40-m f/3.7 reflector + CCD.
    J95 Great Shefford.  Observer P. Birtwhistle.  0.41-m f/6.3 Schmidt-Cassegrain 
       + CCD.
    L01 Visnjan Observatory, Tican.  Observer K. Korlevic.  1.0-m f/2.9 reflector + 
       CCD.
    
    Orbital elements:
    2020 FK3                                                 Earth MOID = 0.0242 AU
    Epoch 2020 May 31.0 TT = JDT 2459000.5                  Alexandersen
    M  10.93665              (2000.0)            P               Q
    n   0.36904210     Peri.   64.51610     -0.65231000     +0.75785808
    a   1.9249470      Node   164.74937     -0.71070087     -0.60608914
    e   0.5059973      Incl.    2.60367     -0.26343107     -0.24146858
    P   2.67           H   25.7           G   0.15           U   7
    Residuals in seconds of arc
    200322 F51  0.2+  0.0     200323 033  0.0   0.1+    200323 L01  0.5+  0.1+
    200322 F51  0.0   0.1+    200323 033  0.3-  0.1-    200324 J95  0.6+  0.1-
    200322 F51  0.1+  0.4-    200323 033  0.3-  0.4-    200324 J95  0.2-  0.5+
    200322 033  0.3-  0.7-    200323 033  0.4-  0.3-    200324 033  0.2-  0.2-
    200322 033  0.1-  0.5-    200323 033  0.3-  0.1-    200324 033  0.4-  0.4-
    200322 033  0.1-  0.3-    200323 I93  0.4+  0.3+    200324 033  0.5-  0.5-
    200323 J95  0.0   0.2+    200323 I93  0.0   0.5-    200324 J95  0.1-  0.2-
    200323 J95  0.2+  0.5+    200323 L01  0.0   0.3+
    200323 J95  0.4-  0.1+    200323 L01  0.5+  0.1-
    
    Ephemeris:
    2020 FK3                 a,e,i = 1.92, 0.51, 3                   q = 0.9509
    Date    TT    R. A. (2000) Decl.     Delta      r    Elong.  Phase     V
    2020 02 23    11 02 25.4 +04 02 23   0.2652  1.2500   168.2     9.3    23.9
    ...
    2020 03 09    11 12 08.0 +06 19 42   0.1568  1.1496   177.7     2.0    22.2
    ...
    2020 03 17    11 24 44.5 +09 16 32   0.1070  1.1006   170.3     8.8    21.7
    ...
    2020 03 23    11 46 20.5 +13 39 10   0.07281 1.0670   164.3    14.7    21.0
    2020 03 24    11 52 13.3 +14 44 52   0.06741 1.0617   163.0    15.9    20.8
    2020 03 25    11 59 12.3 +16 00 21   0.06213 1.0565   161.7    17.3    20.7
    ...
    2020 03 31    13 32 59.8 +29 09 01   0.03452 1.0272   144.2    34.6    19.9
    ...
    2020 04 08    19 47 25.2 +26 58 20   0.03529 0.9945    77.9   100.1    22.1
    ...
    2020 04 23    21 57 06.9 +07 21 38   0.1096  0.9567    60.7   113.6    25.2
    
    A. U. Tomatic                (C) Copyright 2020 MPC           M.P.E.C. 2020-F102
    


    Read MPEC 2020-F101 Read MPEC 2020-F103


    MPEC number:

    Enter an MPEC number in one of the following forms:

    • 1997-B01 (the full form)
    • J97B01 (the packed version of the full form)
    • B01 (the abbreviated form)